Lid_Strength_Index
-1 -1 -0 3 9 9 11 11 8 9 9 6 5 6 7 6 8 11 1 0 -0 -0 -1 -1 -2 -2 -1 -1 -2 -2 -1 -1 -1 -1 -1 -1 -1 -1 -1 -1 -1 -1 -2 -2 -2 -2 -2 -2 -2
-0 0 2 5 11 12 12 9 10 8 7 5 5 6 7 8 4 4 3 -0 -1 -1 -1 -1 -1 -2 -2 -2 -1 -1 -1 -1 -1 -1 -1 -1 -1 -1 -1 -1 -1 -1 -2 -2 -2 -2 -2 -2 -2
-0 0 6 7 10 13 12 9 8 8 6 6 7 5 6 7 4 3 1 -0 -1 -1 -1 -1 -1 -2 -2 -1 -1 -1 -1 -1 -1 -1 -1 -1 -1 -1 -1 -2 -2 -2 -2 -2 -2 -2 -2 -2 -2
1 3 5 9 11 9 9 8 8 8 7 6 6 8 5 2 3 1 -0 -1 -0 -1 -1 -1 -1 -2 -2 -1 -1 -1 -1 -1 -1 -1 -1 -1 -1 -2 -2 -2 -2 -2 -2 -2 -2 -2 -2 -2 -2
1 4 9 10 10 8 7 6 6 8 7 7 5 9 7 3 1 1 1 0 -0 -1 -1 -1 -1 -2 -2 -1 -1 -1 -1 -1 -1 -1 -1 -2 -2 -2 -2 -2 -2 -2 -2 -2 -2 -2 -2 -2 -2
6 5 9 11 10 8 7 6 6 7 6 6 6 7 6 2 2 1 0 1 -1 -1 -1 -1 -1 -2 -2 -1 -1 -1 -1 -1 -1 -1 -1 -1 -1 -2 -2 -2 -2 -2 -2 -2 -2 -2 -1 -1 -1
7 8 9 9 10 9 8 5 6 6 7 7 4 7 5 4 2 1 0 0 0 -1 -1 -1 -1 -1 -2 -1 -1 -1 -1 -1 -1 -1 -1 -1 -1 -1 -2 -2 -2 -2 -2 -2 -2 -2 -2 -1 -2
5 7 9 8 9 10 6 6 5 6 7 3 3 8 7 3 1 2 0 0 1 -1 -1 -1 -2 -1 -2 -2 -1 -1 -1 -1 -1 -1 -1 -1 -1 -1 -1 -2 -2 -2 -2 -1 -1 -2 -2 -1 -2
4 9 9 9 9 8 6 7 5 4 5 5 4 4 3 2 1 1 1 1 1 0 -0 -1 -1 -1 -1 -1 -1 -1 -1 -1 -1 -1 -1 -1 -2 -2 -2 -2 -1 -2 -2 -1 -1 -1 -1 -1 -1
6 8 9 7 6 7 6 6 6 6 6 6 5 3 2 2 2 2 2 3 1 1 1 -0 -1 -1 -1 -1 -2 -2 -1 -2 -2 -2 -2 -2 -2 -2 -2 -2 -1 -2 -2 -2 -1 -1 -1 -2 -1
6 8 7 6 6 6 6 6 5 6 8 6 6 5 3 3 2 2 2 2 1 1 1 -0 -1 -1 -1 -1 -1 -1 -1 -2 -2 -2 -2 -2 -2 -1 -2 -2 -2 -2 -2 -1 -1 -1 -1 -1 -2
8 6 6 6 5 6 7 5 6 6 6 4 4 3 3 3 3 3 3 3 2 1 0 -1 -1 -1 -1 -1 -1 -1 -1 -2 -1 -1 -2 -1 -1 -1 -1 -2 -1 -1 -2 -2 -2 -1 -1 -1 -1
7 6 6 5 5 5 5 6 6 6 4 3 3 3 3 3 2 2 2 2 2 2 0 -0 -1 -1 -1 -1 -1 -1 -2 -1 -1 -1 -2 -1 -1 -2 -1 -1 -1 -1 -2 -2 -1 -1 -1 -2 -1
5 6 6 5 5 5 7 6 6 6 4 4 4 4 3 3 3 2 2 2 1 1 1 -0 -1 -1 -1 -1 -1 -1 -1 -1 -1 -2 -2 -2 -2 -3 -2 -1 -1 -1 -1 -1 -1 -1 -1 -1 -1
5 7 6 6 6 6 5 8 8 5 4 5 5 4 4 3 2 3 2 2 2 2 1 -0 -1 -1 -0 -1 -1 -1 -1 -1 -1 -1 -2 -2 -2 -2 -2 -2 -1 -2 -1 -2 -2 -1 -1 -1 -1
7 6 8 6 6 6 6 11 7 5 5 7 6 5 4 4 3 3 2 2 1 1 1 0 -0 -0 -1 -1 -1 -1 -1 -1 -1 -1 -1 -2 -2 -2 -2 -1 -0 -2 -1 -1 -1 -0 -0 -0 -0
7 8 8 8 6 7 7 10 7 5 5 7 6 6 5 4 3 2 2 1 2 1 0 0 -0 -0 -1 -1 -1 -1 -2 -2 -3 -1 -1 -2 -2 -2 -2 -1 -2 -2 -2 -1 -1 -0 -0 0 -0
9 8 8 8 7 7 8 9 7 6 6 6 6 5 5 4 3 2 1 1 0 0 -0 0 -0 -1 -1 -1 -1 -1 -1 -1 -1 -1 -1 -1 -2 -2 -2 -2 -2 -2 -0 -1 -0 -0 -0 -0 -0
6 7 8 7 6 7 8 8 8 6 6 6 6 5 5 4 3 2 1 1 0 0 0 0 0 -0 -0 0 1 1 1 -0 -0 -1 -2 -2 -2 -2 -2 -1 -1 -1 -0 -0 -1 -0 -0 0 -0
7 8 7 7 7 8 9 9 7 7 6 6 5 5 5 4 3 2 2 1 1 1 0 0 -0 -0 -0 -0 -0 -0 -0 -0 -0 -1 -1 -2 -2 -2 -1 -1 -0 -1 -1 -0 -1 -0 -0 0 -0
7 7 7 7 7 7 7 11 10 7 6 5 5 4 4 4 4 3 2 2 1 1 1 0 0 -0 -0 -1 -0 -0 -0 -0 0 0 -0 -1 -1 -2 -2 -2 -1 -1 -1 -1 -0 -0 0 1 0
7 6 6 7 7 9 6 12 9 8 8 6 5 5 4 4 3 3 3 2 2 1 0 0 -0 -0 -0 -1 -0 -0 1 1 1 0 -0 -1 -1 -2 -2 -2 -2 -1 -1 -1 -1 -1 -0 0 2
7 5 6 7 7 8 8 9 9 8 9 7 6 5 4 3 3 3 2 2 1 1 1 0 -0 -0 -0 -0 -0 0 1 1 0 -0 -0 -1 -1 -1 -1 -2 -2 -1 -1 -1 -1 -1 -0 -0 1
6 6 6 6 7 10 8 9 9 8 8 7 6 5 4 4 3 2 2 2 1 1 1 0 0 0 -0 -0 -0 0 0 0 1 0 1 0 -0 -0 -1 -1 -1 -1 -1 -1 -0 -1 -1 -0 -0
6 7 9 11 10 11 8 9 9 7 6 6 5 5 4 3 3 3 3 2 2 1 1 1 0 1 0 0 0 0 0 0 0 0 1 0 1 0 -1 -1 -1 -1 -1 -1 -1 -1 -1 -1 0
7 7 9 13 11 10 8 10 9 6 5 4 4 4 4 3 3 3 2 2 2 1 1 1 1 1 0 0 0 -0 -0 0 0 0 0 0 0 0 -1 -1 -1 -1 -1 -0 -1 -0 -0 -1 -0
7 7 6 9 8 10 9 8 7 5 6 5 5 4 4 4 3 3 2 2 2 1 1 1 1 1 1 0 0 0 -0 0 -0 -1 -0 -0 -1 -0 -1 -1 -1 -1 -1 -1 -0 0 0 -0 -0
6 6 8 8 11 12 10 9 10 8 7 5 5 5 4 3 3 3 2 2 1 1 1 0 1 1 0 0 0 0 -0 -0 -0 -0 0 -0 -1 -1 -1 -0 -1 -0 -1 -1 -1 0 0 -0 -0
7 7 7 7 8 11 12 10 6 7 6 6 5 5 4 4 3 3 3 2 1 1 1 1 1 1 1 1 0 0 0 -0 -0 0 -0 -0 -0 -1 -0 -1 -0 -0 -0 -1 -0 -0 -0 0 0
6 7 7 9 10 8 9 10 5 6 5 5 5 4 4 4 3 3 3 2 2 2 1 1 1 1 1 0 0 1 0 -0 0 0 0 -0 -0 -1 -1 -1 -0 -0 -0 -0 -0 0 0 0 1